Theta_e
311 311 310 309 309 310 311 313 315 316 317 319 320 321 321 321 322 322 321 321 322 323 326 328 328 328 328 328 329 330 331 330 330 330 330 330 331 331 333 336 337 337 338 339 341 345 346 346 346 345 344 343 343 344 344 342 342 342 342 343 343 343 343 342 341 342 341 340 341 341 340 338 338 339
311 311 311 310 310 310 312 313 314 315 317 318 320 320 319 319 321 322 321 321 321 321 324 327 327 327 327 327 328 329 330 330 330 330 329 329 329 329 331 333 335 337 337 337 338 341 344 345 346 345 345 344 343 344 344 343 342 342 342 343 343 343 343 342 341 342 342 341 341 341 340 340 340 340
312 312 312 311 310 309 309 311 313 314 315 317 318 319 318 319 321 322 321 322 322 322 323 326 327 327 326 326 327 327 328 328 328 328 328 328 328 328 329 330 332 334 337 338 337 338 341 344 345 344 344 345 345 344 344 344 342 341 343 343 342 342 344 343 342 343 342 342 342 341 341 341 340 339
312 312 312 311 309 307 305 307 310 313 314 315 317 318 318 319 320 321 321 321 322 323 324 326 326 327 326 325 325 325 325 325 325 325 324 325 326 327 327 328 329 331 335 337 338 338 338 341 344 345 344 344 345 345 344 344 343 341 342 342 341 342 344 343 342 342 342 342 342 341 341 341 340 339
311 311 310 309 307 305 302 302 305 310 313 314 315 316 318 319 320 321 321 321 322 323 325 326 326 326 325 325 324 324 323 323 322 322 321 321 322 323 324 326 327 329 332 336 337 337 338 338 340 344 345 344 345 344 343 343 343 343 343 343 341 342 343 343 343 343 342 342 342 341 340 341 341 340
309 309 309 308 306 303 301 301 302 305 310 313 314 315 316 319 320 321 321 321 321 323 324 324 325 325 325 324 323 323 323 322 321 321 320 319 318 319 321 323 326 327 330 334 337 337 337 338 338 341 344 345 344 344 344 343 343 343 344 343 341 341 342 343 343 343 341 341 341 341 340 340 340 340
310 310 310 309 306 302 300 301 301 303 309 313 313 313 314 316 318 320 321 321 321 322 322 323 323 324 323 323 323 322 322 321 321 319 319 318 317 317 318 320 324 326 328 333 336 336 336 337 337 339 342 345 345 344 344 344 343 344 344 343 341 340 342 343 343 342 341 341 341 341 340 340 340 341
312 312 310 309 306 302 301 301 301 303 310 313 313 313 313 313 314 317 319 320 321 322 322 322 322 322 322 322 321 321 320 320 319 318 317 317 316 316 316 317 321 324 327 331 335 335 336 336 336 338 341 344 345 345 345 344 344 344 344 343 341 339 341 342 342 343 341 341 342 341 340 340 340 340
313 313 311 309 307 304 301 301 303 305 310 314 314 314 314 313 312 312 314 316 317 319 321 321 321 321 320 320 319 319 319 318 318 317 317 317 316 314 314 315 318 323 325 329 332 334 335 335 335 336 339 342 345 345 345 344 344 344 344 343 342 341 342 342 342 342 342 341 342 342 341 340 340 340
313 313 313 310 308 305 301 302 305 307 310 312 314 314 314 314 313 312 311 311 312 313 315 317 318 319 318 318 318 318 318 317 317 317 317 316 314 313 313 313 315 320 324 328 331 333 334 335 335 335 336 340 343 345 346 344 343 344 344 343 342 342 342 343 342 341 341 342 342 341 341 341 340 339
314 313 313 311 309 306 302 301 306 309 309 310 312 314 314 313 312 312 311 311 310 309 310 311 313 316 316 316 317 317 317 316 315 315 314 313 311 310 310 311 312 317 323 328 331 333 334 335 334 334 335 338 341 343 345 344 343 344 344 342 342 342 342 342 342 342 341 342 342 341 341 341 341 340
314 314 314 313 309 306 303 301 306 310 311 311 312 314 315 313 312 311 310 309 309 308 308 307 309 312 313 314 314 314 315 315 314 315 314 315 315 311 309 310 312 316 322 327 331 333 334 335 335 334 334 337 340 342 343 344 344 344 343 343 343 343 342 342 342 342 341 341 342 342 340 341 341 340
315 314 314 314 310 307 303 301 306 311 312 313 313 314 315 314 311 310 309 309 309 309 308 307 309 312 313 313 313 313 314 315 316 316 316 318 319 314 313 316 318 321 325 328 332 333 334 334 335 334 333 335 339 341 341 343 344 344 344 344 344 343 342 341 341 341 341 341 341 341 341 341 341 340
315 314 315 314 310 307 303 300 305 310 312 314 316 316 315 313 311 310 310 310 311 311 310 310 312 313 313 313 313 314 315 315 316 317 317 320 320 316 316 320 322 324 327 330 332 332 333 335 335 334 334 335 338 340 341 342 344 344 345 344 343 343 342 341 340 341 341 341 340 340 340 340 340 340
315 314 315 314 310 307 303 298 302 309 312 313 315 315 314 312 311 311 310 310 311 311 312 312 312 312 313 313 313 313 314 314 315 317 318 321 322 320 319 321 322 325 327 330 331 331 332 334 334 334 334 334 336 338 340 342 344 344 344 343 342 343 343 341 341 341 341 341 341 340 339 339 339 339
314 314 315 314 310 307 303 298 299 306 311 313 313 313 312 312 312 311 309 310 311 311 312 312 312 312 312 313 313 312 313 313 314 315 317 320 322 322 322 322 323 324 326 328 330 330 330 333 334 335 335 334 335 336 337 340 343 344 343 343 343 343 342 341 340 341 341 341 341 340 339 339 339 339
314 314 315 313 310 307 304 299 298 302 308 312 313 312 312 312 311 310 309 309 311 311 311 311 311 312 312 312 313 313 313 313 313 313 315 318 321 322 322 323 323 324 325 326 328 328 329 330 332 334 334 334 335 335 335 337 341 343 344 343 343 342 342 342 341 341 342 341 340 340 339 339 339 339
313 313 315 313 310 308 306 302 300 301 303 307 309 309 310 310 310 310 309 310 311 311 311 311 311 312 312 312 313 313 313 313 312 312 312 315 320 322 322 323 323 324 324 325 327 328 328 328 329 332 334 334 334 335 335 336 338 340 342 343 343 342 342 342 342 342 342 341 340 340 340 339 339 340
312 312 314 314 310 308 308 305 303 302 304 305 306 307 307 308 309 310 310 310 311 311 310 310 310 310 311 311 311 312 312 311 311 311 310 312 318 321 321 321 322 322 323 324 325 326 327 327 328 331 333 333 333 334 334 335 336 338 340 342 343 343 343 342 342 341 341 341 340 340 340 340 340 340
312 312 314 314 311 308 309 307 305 305 306 306 306 306 306 307 308 309 309 310 311 311 310 310 310 310 309 310 310 310 310 310 310 310 309 311 317 320 320 320 321 320 321 322 323 325 326 327 327 329 331 332 332 333 333 333 334 336 338 341 343 343 343 343 342 342 341 341 341 341 340 340 340 340
312 312 313 314 313 309 309 309 308 307 307 307 307 306 306 305 307 308 309 310 310 310 310 310 310 309 309 309 309 308 309 309 309 309 308 309 313 318 320 320 320 320 320 320 322 324 324 325 327 328 329 331 331 331 331 331 332 333 336 339 341 343 343 342 342 343 342 342 341 341 340 340 340 340
312 312 312 314 313 311 309 309 309 309 308 308 308 308 307 306 306 307 308 309 308 308 308 307 307 308 308 308 308 308 308 308 307 308 307 306 309 315 319 319 319 319 319 319 321 323 323 324 325 326 328 330 330 330 330 330 330 331 333 335 338 342 343 342 342 343 342 342 342 341 341 341 341 341
311 312 312 313 314 312 310 309 310 310 309 309 309 309 309 308 307 306 307 307 307 307 306 305 306 307 307 308 309 309 308 308 307 306 305 305 308 314 318 318 318 318 319 318 319 321 322 322 323 324 327 329 329 330 329 329 329 329 331 332 335 339 342 343 343 342 342 342 342 340 340 341 341 340
311 311 311 312 313 313 311 310 310 310 310 310 310 309 309 309 308 308 307 307 307 308 307 306 306 308 308 309 309 309 308 308 307 306 306 307 309 314 317 318 317 318 318 318 318 318 320 321 322 323 325 327 329 329 329 328 328 328 329 329 331 334 337 340 342 343 343 343 343 342 341 341 341 341
312 312 311 311 312 313 312 311 310 310 311 311 311 311 311 310 309 309 308 308 308 308 308 306 307 307 307 308 308 307 308 309 308 308 310 310 311 314 316 316 317 317 317 317 317 316 317 319 321 322 323 326 328 329 329 328 327 327 328 328 329 330 332 335 337 339 342 343 343 343 342 342 341 341
313 312 312 311 311 312 313 312 311 310 311 311 312 312 312 312 310 309 309 309 309 309 308 307 307 307 306 307 307 306 307 308 309 310 311 311 311 314 315 314 316 317 317 317 317 316 315 316 319 320 322 324 327 328 329 328 326 327 328 329 329 330 331 333 334 337 340 343 344 344 343 342 342 343
313 313 313 312 311 312 313 313 312 311 310 311 311 312 312 311 311 310 309 309 309 309 309 308 307 307 307 306 306 306 306 308 309 311 312 311 312 313 313 314 315 316 316 316 316 315 314 315 316 318 320 322 324 327 328 328 326 326 328 329 330 331 331 332 333 335 338 341 343 343 343 343 343 343
314 314 314 313 313 312 312 313 313 312 312 311 311 312 312 311 311 310 309 309 309 309 309 309 308 308 307 306 305 306 306 307 309 310 311 311 312 312 313 313 314 315 316 316 316 315 314 314 315 316 319 321 323 326 327 327 326 326 326 327 328 330 331 332 333 335 336 338 340 340 341 343 343 343
315 315 315 314 314 313 312 312 313 313 313 312 312 312 312 312 311 311 310 310 309 309 309 309 308 308 308 306 305 306 307 307 307 309 310 311 311 313 315 315 314 315 315 315 315 314 312 313 313 315 317 320 323 325 327 327 327 326 325 325 325 327 329 330 331 333 334 336 338 338 339 341 342 342
315 315 315 314 314 314 313 312 312 312 313 313 313 313 313 313 312 311 310 310 310 310 310 310 308 308 307 307 306 306 307 307 307 308 309 310 311 312 314 315 315 315 315 315 314 313 312 312 312 314 316 320 322 325 327 327 328 327 326 324 323 323 325 326 327 329 330 332 335 336 338 339 340 340
316 316 316 315 314 314 314 314 313 312 312 313 313 313 313 313 313 312 311 311 310 310 310 310 308 307 306 306 306 306 306 307 308 308 308 308 309 310 311 312 313 314 315 314 313 312 311 311 311 313 317 320 323 325 326 327 326 326 325 323 322 322 322 322 323 324 325 327 330 333 335 337 338 339
316 316 316 316 315 315 315 314 314 313 313 312 313 313 314 314 314 313 312 311 311 311 310 311 310 308 306 305 306 305 305 306 308 309 308 307 307 307 309 311 311 312 312 312 311 311 310 310 311 314 318 321 323 325 326 326 326 325 325 324 323 322 322 321 321 321 321 322 325 328 332 334 335 337
314 315 316 316 316 316 316 315 314 314 313 313 313 313 314 314 314 313 312 312 311 311 311 310 310 310 308 307 306 306 306 306 306 308 309 307 305 304 306 309 310 310 310 310 309 309 309 310 311 314 319 321 322 324 326 326 326 325 325 324 323 322 321 320 320 319 319 319 321 324 327 330 332 333
314 314 316 317 317 317 317 316 315 314 314 314 313 314 314 314 314 314 313 313 312 311 311 311 311 311 310 308 307 307 306 306 306 307 308 306 304 305 306 308 309 308 308 309 309 309 310 311 312 314 318 320 322 323 325 325 326 325 325 324 323 321 319 318 317 317 318 318 318 320 322 325 327 329
314 316 316 317 318 318 318 317 316 315 315 314 314 314 314 314 314 314 314 313 312 311 311 311 310 311 310 309 308 307 306 306 306 307 307 306 306 308 309 308 308 308 308 309 310 310 311 311 312 314 317 319 321 322 324 325 326 325 324 324 323 321 318 316 316 316 316 316 317 317 319 320 322 325
316 317 317 318 318 318 318 317 316 315 315 316 315 314 314 315 314 314 314 314 313 312 312 311 311 311 311 310 309 307 306 306 307 307 306 306 306 308 309 308 308 309 310 310 310 309 310 311 313 315 317 319 320 322 323 324 325 325 324 323 322 320 317 315 316 316 316 316 316 316 317 317 318 319
319 319 318 319 319 319 318 318 316 316 316 316 316 315 314 315 315 314 314 314 314 313 312 311 311 311 311 310 310 308 306 306 306 307 306 306 305 306 307 308 308 309 310 309 308 308 309 310 314 317 318 318 320 321 322 322 323 324 324 322 321 319 317 315 316 317 317 316 316 316 316 317 316 317
320 320 320 320 320 320 319 317 316 316 316 316 317 316 315 315 315 315 315 315 314 314 313 312 311 311 311 311 311 309 307 306 306 307 307 307 305 305 305 306 307 308 309 308 307 307 307 308 312 317 318 318 319 321 321 322 323 323 323 322 321 319 317 316 316 317 317 317 317 317 316 316 316 316
321 321 321 320 320 320 319 317 316 316 317 317 317 317 316 315 315 315 315 315 315 315 314 313 312 311 311 311 311 310 309 307 306 306 307 307 306 305 304 305 306 307 308 308 307 307 306 305 310 317 319 318 319 320 321 321 322 322 322 322 321 319 317 317 316 317 318 317 317 317 316 316 315 315
321 321 321 321 321 320 319 318 317 317 317 317 317 317 316 316 316 315 316 316 316 316 315 314 313 312 311 311 311 311 310 308 306 306 306 307 307 306 305 305 305 306 307 308 307 307 306 305 308 316 319 318 317 319 320 320 321 321 321 321 320 318 317 317 317 318 318 318 317 317 315 314 314 313
322 322 321 320 320 320 319 318 317 317 317 317 317 317 317 317 316 316 316 316 316 316 316 315 315 313 312 311 312 312 311 309 307 306 306 306 307 306 305 306 305 305 306 307 307 307 308 306 307 313 318 318 317 317 318 319 320 320 320 320 320 319 318 318 318 317 317 317 317 317 315 313 313 313
323 322 321 321 320 320 320 319 318 317 317 317 317 317 317 318 317 316 316 316 316 317 316 316 316 315 313 312 312 312 312 310 308 306 305 306 306 307 306 306 306 304 304 306 307 307 308 308 308 311 316 318 317 316 316 317 318 319 320 320 320 319 319 319 318 317 317 317 317 317 316 313 313 314
323 323 322 322 321 320 320 320 319 318 318 317 318 317 317 318 318 318 317 317 317 317 317 316 316 316 314 313 313 313 312 311 309 307 306 306 306 307 306 306 306 305 304 304 306 307 307 308 308 309 313 315 315 314 314 315 316 317 318 319 319 319 319 319 318 317 317 317 317 317 316 315 314 314
323 323 323 322 322 321 320 320 319 319 318 317 318 318 317 317 318 318 318 317 317 317 317 317 317 316 315 314 313 313 313 311 310 308 307 306 306 306 306 305 306 306 304 304 305 306 307 307 308 309 311 314 314 314 313 313 314 315 316 317 318 318 318 317 316 316 315 315 315 316 317 316 315 314
322 322 322 322 321 321 321 320 320 319 318 318 318 319 318 318 318 317 318 318 317 317 317 317 317 317 316 315 315 314 313 311 311 309 308 307 307 307 306 305 305 306 305 304 304 306 306 307 308 309 310 312 315 315 315 313 313 314 314 314 315 316 316 315 314 314 314 314 314 315 316 317 315 314
Wind_Speed
20 19 18 15 14 13 12 10 9 9 9 9 10 10 10 13 14 14 15 13 12 13 13 12 12 13 13 15 16 17 17 17 17 18 19 20 20 19 18 17 17 17 14 10 10 18 24 27 28 30 31 31 31 31 31 33 33 34 34 35 34 33 33 32 32 32 33 33 34 35 36 36 36 36
19 19 19 18 15 13 12 10 9 8 8 8 7 8 8 10 12 13 14 14 14 14 13 12 12 13 13 14 15 16 16 16 16 17 18 19 20 20 18 17 17 18 18 15 10 11 19 25 26 27 29 30 31 32 31 32 34 34 34 35 35 34 34 33 32 33 33 33 34 34 35 36 36 36
17 18 19 19 17 15 12 9 8 7 6 7 7 7 8 9 10 12 13 13 14 14 13 12 11 12 13 13 13 13 14 15 16 16 18 19 19 20 19 18 18 17 17 18 15 10 11 20 25 26 28 30 31 32 32 32 34 35 35 35 35 34 34 33 32 33 32 32 33 34 35 36 36 36
17 18 19 20 19 17 14 10 7 6 5 6 6 7 8 8 10 12 13 12 12 12 11 11 10 11 13 13 13 13 13 14 15 16 18 19 19 19 20 20 19 18 17 17 18 16 9 12 21 26 29 30 31 32 33 33 34 35 35 35 35 34 34 33 32 32 32 31 32 33 34 35 36 36
17 18 19 20 21 20 17 11 6 6 5 5 5 6 6 7 9 10 10 11 11 10 9 9 10 11 12 13 14 14 15 15 16 17 18 19 19 19 20 20 19 19 18 17 17 18 15 9 12 22 29 31 31 31 32 33 34 36 36 36 34 34 34 33 33 33 32 31 32 33 33 34 36 37
18 19 20 22 24 23 19 12 6 4 4 4 4 5 5 5 6 7 8 10 11 10 9 9 10 11 12 14 16 17 18 19 20 21 21 20 20 19 19 20 20 19 18 16 17 18 18 14 9 13 24 30 31 31 32 34 35 37 38 36 34 33 34 34 33 33 31 31 32 32 33 34 35 37
19 20 22 24 26 25 20 12 5 3 3 3 4 5 6 6 6 6 7 8 9 10 10 10 11 13 14 16 17 18 20 22 23 24 24 22 20 19 18 18 18 19 18 16 16 18 19 17 13 8 17 26 30 31 33 34 35 36 36 35 35 34 34 34 33 32 31 31 32 33 33 33 34 35
20 21 24 26 27 25 20 14 7 3 2 2 4 6 7 7 7 7 7 7 8 9 10 10 11 13 15 17 19 20 21 23 24 23 22 21 20 18 17 16 17 18 17 16 16 17 18 18 16 9 11 21 28 31 32 33 34 34 33 34 34 34 35 35 35 33 32 32 32 33 33 34 33 34
21 22 24 26 27 25 21 15 9 6 3 2 3 5 7 7 7 8 8 8 9 10 10 11 12 13 16 18 20 21 22 23 23 21 19 19 18 16 14 13 14 16 16 15 15 16 17 18 17 13 8 15 24 29 31 32 33 32 32 33 35 35 36 36 35 34 33 32 33 33 33 34 34 34
19 21 24 26 26 24 21 16 11 8 6 4 4 7 8 8 9 9 10 10 11 11 11 12 12 14 15 17 18 19 20 22 22 22 19 17 16 16 14 11 11 13 14 14 15 16 17 17 16 14 9 9 20 28 31 32 33 32 32 34 35 36 36 35 35 34 33 33 33 33 33 33 34 34
18 20 22 25 26 24 20 15 12 10 9 6 5 7 8 8 11 12 12 13 13 13 12 12 12 13 14 15 16 17 17 17 18 20 21 20 18 17 14 11 9 9 10 12 13 14 16 16 16 15 12 7 11 22 30 32 33 32 32 34 35 35 35 34 34 34 33 33 33 33 33 32 33 34
17 19 21 24 26 23 18 14 11 11 11 9 5 6 7 9 12 14 15 15 14 14 13 12 11 10 11 12 13 14 14 14 15 19 21 23 22 19 13 9 7 7 8 10 11 12 13 14 15 16 13 8 4 14 24 28 32 32 31 33 35 35 35 34 33 32 32 32 33 32 32 32 32 34
16 18 20 23 25 23 17 12 9 8 10 9 5 4 7 9 12 16 18 17 16 16 15 12 9 9 10 12 13 14 15 15 17 18 20 22 22 16 10 6 6 6 7 8 10 11 13 13 14 15 14 10 3 10 17 22 28 31 31 32 33 34 35 34 33 32 31 31 31 30 30 30 31 33
15 17 20 22 24 23 17 11 7 5 7 8 6 5 8 10 13 17 18 17 17 17 15 12 11 11 12 14 16 16 15 15 17 18 19 21 21 16 10 6 6 7 7 7 8 11 13 12 12 15 15 13 6 5 14 19 23 27 29 31 32 33 34 33 32 31 30 30 29 28 29 30 30 31
14 16 19 21 23 23 18 12 6 3 4 5 5 6 8 10 14 17 17 17 17 16 14 13 13 14 14 15 17 16 15 16 18 18 19 19 19 17 14 11 8 9 9 8 9 11 11 10 10 14 16 16 11 2 10 18 22 23 26 29 30 30 30 30 30 30 29 29 29 29 30 30 29 30
13 14 17 19 22 23 19 14 8 2 1 2 3 4 6 9 12 14 15 16 15 14 14 14 14 14 14 14 16 17 17 17 18 19 19 18 16 15 15 14 12 11 10 10 10 11 11 10 10 11 14 15 12 9 4 10 19 22 23 25 27 28 29 28 29 29 29 29 29 29 30 29 29 29
13 13 15 17 20 21 19 15 11 5 1 2 3 4 6 9 10 12 12 12 13 13 13 14 14 14 14 14 15 16 16 17 19 20 21 20 16 12 12 13 13 12 11 10 11 11 10 11 12 10 10 12 11 11 9 1 14 21 23 23 25 27 28 28 28 29 29 29 30 30 30 29 29 29
12 12 14 15 17 19 19 16 14 11 5 3 5 6 8 9 10 11 10 9 10 11 13 13 14 14 14 14 14 14 14 16 18 20 22 22 18 12 9 11 12 12 11 10 10 11 11 12 13 11 10 11 11 11 11 5 6 15 21 23 25 28 29 30 30 30 29 29 30 30 30 29 29 29
12 12 12 13 15 17 18 17 15 14 11 9 8 8 9 8 8 9 9 9 9 10 11 13 13 13 13 13 14 14 14 16 17 18 20 20 18 12 7 7 10 10 10 10 10 10 11 12 12 12 11 10 10 10 10 8 2 8 17 23 26 28 30 30 30 30 30 30 30 31 31 30 30 29
12 11 11 11 12 13 15 16 15 13 12 11 11 11 11 9 7 6 7 8 8 10 11 12 12 13 13 13 14 15 16 16 17 17 17 16 15 13 8 6 9 10 10 11 10 9 10 11 11 12 11 10 10 10 10 10 8 2 11 20 25 27 28 28 28 28 29 29 29 30 31 31 30 30
12 11 10 10 10 11 12 13 13 12 11 11 12 12 12 11 9 6 5 6 8 9 10 12 13 13 13 13 14 15 16 17 17 18 18 15 14 13 10 8 9 10 11 11 10 9 10 11 12 11 10 10 11 11 11 11 10 8 4 11 20 24 26 26 27 28 29 28 28 30 31 31 30 30
11 11 9 9 9 9 9 10 11 10 10 11 12 12 13 13 11 8 7 8 9 11 12 13 14 14 14 14 13 13 14 15 16 18 18 16 13 12 11 10 9 9 10 12 11 10 10 11 11 11 10 10 10 11 11 10 10 10 9 5 8 19 25 26 26 27 28 28 28 29 31 31 31 32
11 11 10 9 9 8 8 8 8 9 9 10 11 12 12 13 12 11 10 11 11 12 15 15 14 14 14 12 12 12 11 12 14 16 16 14 11 10 10 11 10 10 11 13 13 11 10 11 12 12 11 10 9 9 10 10 10 9 9 8 4 9 19 24 25 26 27 27 27 29 30 32 33 34
11 11 11 10 9 9 8 8 8 8 9 10 11 12 12 13 13 12 11 11 11 13 15 15 13 13 13 11 11 11 11 12 14 13 11 10 9 8 8 8 10 10 11 13 14 13 11 11 12 12 12 11 9 8 10 11 11 9 8 7 6 3 7 14 21 25 26 27 28 29 30 31 32 33
10 11 12 11 10 10 9 8 8 8 9 10 11 12 13 14 14 13 12 11 12 13 14 14 13 14 13 12 11 11 12 13 13 10 8 8 8 7 7 7 8 8 9 11 13 13 12 11 11 10 10 11 9 8 8 10 11 11 9 7 5 5 5 4 10 17 23 27 28 29 30 29 29 30
10 11 12 12 11 11 10 9 9 9 9 10 10 11 13 14 14 14 13 12 13 13 13 13 13 14 15 15 13 12 12 13 11 9 9 10 8 6 6 8 8 8 10 11 12 12 14 13 12 11 9 9 9 7 6 8 9 11 11 9 7 6 5 3 3 9 17 25 28 29 29 29 29 30
11 11 12 12 12 12 11 10 10 10 10 10 10 11 12 13 14 14 13 12 13 13 13 13 13 13 15 16 15 13 12 12 10 9 9 11 10 7 6 6 7 7 10 11 11 12 13 13 13 12 10 9 8 7 6 6 8 9 10 11 11 9 7 5 3 5 12 20 26 28 29 30 30 30
12 13 12 12 12 12 12 12 11 11 10 10 10 11 12 13 14 13 12 12 12 12 12 13 13 13 14 15 14 11 11 12 10 8 8 10 11 10 6 5 6 7 9 10 10 11 12 12 12 12 10 8 8 7 5 4 6 9 11 11 12 12 12 10 6 4 6 11 17 21 25 28 30 30
13 14 14 13 13 13 13 13 13 12 11 11 11 11 12 12 12 12 11 11 11 12 12 13 14 13 12 12 11 9 10 11 10 8 7 7 9 10 7 3 4 6 7 8 10 11 11 12 12 12 10 7 6 6 4 1 3 6 9 10 12 14 15 14 12 10 7 3 7 11 17 23 26 27
14 14 15 15 15 14 14 14 14 14 12 12 12 12 12 12 11 11 11 10 10 12 13 13 14 12 10 9 9 9 9 9 9 8 7 7 7 7 6 3 3 5 6 9 11 12 11 11 10 11 10 7 5 5 3 2 2 3 6 8 11 13 14 15 16 16 15 11 6 4 10 16 19 21
15 16 16 16 16 15 14 14 15 15 14 14 13 13 13 12 11 11 10 10 10 10 12 13 14 12 9 8 9 9 8 8 8 8 8 8 8 6 6 5 5 6 7 9 11 12 12 11 9 9 9 6 5 3 3 5 5 6 7 9 10 12 14 15 15 16 18 17 13 8 4 8 13 16
17 18 18 18 17 17 16 15 15 15 15 15 14 14 14 13 11 10 10 10 9 10 10 11 13 13 10 8 9 9 8 7 7 8 9 10 9 8 7 7 7 7 8 9 11 12 13 12 10 8 7 6 5 2 2 6 7 7 9 10 11 13 14 15 15 17 17 16 16 14 11 5 6 10
19 20 20 19 19 18 17 17 16 15 15 15 15 15 15 15 13 10 10 10 9 9 9 9 10 12 11 9 9 10 9 8 7 7 9 11 10 8 7 7 8 9 10 11 11 11 11 11 9 7 7 6 5 2 2 6 7 8 9 11 12 13 14 14 15 16 16 15 14 15 15 13 10 6
21 22 21 21 20 20 19 18 17 16 15 16 16 15 15 15 14 12 10 10 10 10 9 9 9 10 11 10 8 9 9 9 7 6 9 11 9 7 6 7 7 8 9 9 9 8 8 9 8 6 6 6 6 3 2 6 9 9 10 10 11 12 14 15 15 15 15 15 14 13 14 15 14 13
23 23 23 22 21 21 20 19 17 16 16 16 16 16 15 14 14 13 11 10 10 11 10 8 8 9 10 10 9 8 8 8 6 5 8 9 7 6 7 8 7 6 6 5 6 6 7 9 8 5 5 6 6 4 2 7 10 10 10 10 11 13 14 15 15 15 15 15 13 12 13 14 14 14
24 24 24 23 22 21 20 18 16 16 16 17 16 16 16 15 14 13 12 10 11 12 11 9 9 9 9 9 9 8 7 7 5 5 6 6 5 5 6 7 6 6 5 5 5 6 8 9 8 5 4 5 5 3 1 4 8 11 10 10 11 13 14 15 15 14 15 14 13 12 13 14 14 13
24 23 23 23 22 21 20 18 16 16 17 17 17 16 16 15 13 12 12 12 12 12 11 10 10 10 9 8 9 9 7 6 6 5 4 4 5 5 5 5 6 5 5 5 6 7 8 10 9 4 2 5 6 4 1 1 6 11 12 11 11 12 14 14 13 13 14 14 13 13 13 13 14 13
24 23 23 22 21 20 20 18 17 17 17 17 17 16 16 16 14 12 13 13 13 12 12 11 11 11 10 9 9 9 8 6 6 6 6 5 6 6 5 5 4 5 5 5 7 8 9 9 9 5 1 3 5 4 2 2 4 8 11 11 11 12 13 12 11 12 14 14 14 14 14 13 13 13
23 23 24 23 21 20 20 19 18 18 17 17 18 17 16 15 14 13 13 13 12 12 12 12 12 12 12 10 9 9 9 7 7 7 7 7 7 7 6 4 4 4 4 5 7 9 9 7 7 5 2 2 2 3 3 4 5 6 7 9 11 12 12 11 10 11 12 13 13 14 13 13 13 13
23 24 24 23 22 21 20 20 20 19 18 18 18 18 17 16 15 15 14 13 12 11 12 11 12 13 13 12 10 10 9 8 7 8 8 8 7 6 5 4 4 4 4 4 6 8 7 5 4 3 2 1 2 2 2 3 5 6 7 8 9 10 10 10 9 9 10 11 12 12 12 13 14 14
24 24 24 23 22 21 20 20 20 20 19 18 18 18 17 16 16 16 15 14 13 13 12 12 11 12 13 13 12 10 9 8 7 8 9 9 8 6 4 3 4 5 4 4 5 6 5 4 3 1 1 2 3 3 2 1 2 4 6 6 6 7 7 7 7 7 7 8 8 9 11 12 14 14
25 25 24 24 23 21 21 20 20 20 19 19 19 18 17 16 16 16 17 17 16 15 14 13 12 12 13 13 13 11 9 8 7 8 10 10 9 8 6 5 5 6 4 4 5 4 3 3 2 2 2 4 5 4 3 2 3 3 5 6 5 5 5 5 5 5 5 5 6 7 8 10 12 12
24 25 25 24 23 22 21 20 20 20 20 19 19 19 18 17 16 16 17 17 17 17 16 14 12 12 12 12 13 12 10 8 7 7 9 11 11 10 9 7 6 6 5 5 5 5 4 2 2 2 2 4 6 5 5 4 4 3 4 4 5 4 4 4 3 4 4 4 5 5 6 7 8 9
23 24 24 24 23 23 22 21 20 20 20 20 20 20 20 19 17 16 16 16 17 17 17 15 14 13 13 12 13 13 11 8 7 7 8 10 11 12 11 10 8 7 7 5 5 6 5 3 1 2 3 4 6 6 6 6 5 4 4 4 4 4 4 4 4 4 3 3 3 4 4 4 5 5
22 23 23 23 22 22 22 21 21 21 21 20 20 20 21 20 19 17 17 16 16 17 17 16 16 15 14 13 14 13 11 9 9 8 8 9 10 11 11 11 10 9 8 7 6 7 6 5 3 2 3 5 6 7 6 6 5 5 5 5 4 5 5 5 4 4 3 3 2 3 2 2 2 2
Wind_Direction
25 26 27 28 26 22 18 10 0 353 351 351 352 357 1 355 353 355 355 353 350 349 347 343 349 357 359 359 358 354 356 360 0 1 4 4 5 6 4 4 6 4 359 334 270 234 220 217 217 219 220 220 221 221 220 218 217 216 215 214 214 213 210 206 205 204 203 202 202 203 203 203 201 199
24 26 28 30 30 25 19 13 7 359 352 353 353 349 350 347 343 348 353 348 341 340 341 339 342 349 354 354 352 348 349 354 355 355 359 1 0 0 0 3 4 3 4 2 333 264 234 222 214 214 217 219 221 222 220 219 219 218 217 215 214 213 211 207 204 204 204 203 203 204 203 203 201 200
24 24 23 23 23 21 17 8 1 358 353 354 354 343 337 335 335 343 346 342 340 337 334 335 336 339 345 346 344 343 344 349 350 351 355 356 354 354 357 0 2 1 3 6 0 333 260 232 219 214 216 218 221 222 220 219 219 218 218 218 216 214 212 207 204 204 204 203 203 204 203 202 202 201
22 20 17 13 9 8 8 5 352 345 347 354 354 343 335 329 326 334 340 341 342 339 334 332 328 328 335 336 335 338 343 346 348 350 351 350 347 348 351 354 358 359 359 2 3 359 330 254 228 218 217 218 220 221 220 219 219 218 218 217 215 213 212 209 204 205 205 202 203 205 204 203 202 201
23 19 13 8 4 1 1 1 347 332 338 350 351 341 330 324 321 327 340 347 347 343 334 326 321 320 322 325 328 332 335 338 342 344 343 341 341 343 345 346 351 356 356 355 358 0 355 323 252 226 218 217 219 219 218 218 218 217 216 214 212 212 211 209 205 204 204 202 203 205 205 204 202 201
27 20 13 8 6 4 5 5 353 335 339 349 1 359 349 341 334 333 340 344 344 342 334 323 316 314 314 318 324 329 333 335 336 335 333 333 335 337 337 338 342 349 353 352 355 358 357 352 316 246 223 217 217 217 216 218 218 217 215 211 210 210 209 207 205 204 202 201 202 203 204 204 203 202
27 20 12 8 7 8 12 14 8 359 354 0 22 29 25 16 5 353 344 341 339 336 334 329 319 316 320 322 324 327 331 331 330 329 329 329 331 330 329 331 334 340 347 349 352 356 357 357 348 288 233 220 218 217 216 218 218 216 214 210 210 211 209 207 205 204 202 201 200 202 203 204 203 202
23 17 12 10 7 8 14 17 17 34 29 16 33 38 35 29 20 11 357 344 338 330 326 327 324 320 323 324 323 322 323 325 326 327 328 328 328 327 326 326 325 329 339 345 348 354 357 356 356 332 252 225 218 217 216 216 217 214 212 210 210 209 207 206 204 203 203 201 200 201 202 202 201 201
20 14 11 10 6 6 12 16 22 36 33 18 29 25 21 20 18 13 3 350 339 330 321 319 319 317 315 315 317 319 321 325 327 329 332 331 329 326 322 318 315 318 330 341 344 351 356 357 358 350 294 234 220 217 215 215 215 214 212 211 209 206 205 204 203 203 203 202 201 202 202 201 200 200
16 12 10 9 6 5 8 15 24 28 16 12 23 16 7 2 358 354 352 348 342 336 329 321 318 317 315 314 317 323 328 330 330 331 332 331 331 329 325 318 311 313 326 340 345 349 355 357 356 355 332 255 224 216 213 212 214 213 212 210 208 206 205 204 203 204 205 204 201 202 203 201 199 200
10 9 7 6 6 4 4 10 23 24 15 17 29 22 10 359 357 357 353 347 342 336 333 328 324 323 323 322 324 329 329 327 329 334 336 337 338 336 334 328 316 311 322 340 349 352 354 354 354 355 346 306 238 219 212 208 209 211 211 209 207 206 205 204 203 204 205 204 201 200 202 202 201 201
4 4 4 3 4 5 2 7 24 28 20 25 38 26 11 5 8 10 5 357 351 345 338 334 332 331 329 327 327 329 331 331 337 344 346 347 345 342 341 340 331 321 326 342 350 351 353 354 355 355 351 348 284 225 212 204 204 208 210 207 205 205 204 202 203 204 205 204 201 200 201 202 202 202
358 358 1 1 2 4 2 5 27 34 19 23 40 24 7 9 11 8 4 5 5 359 352 348 352 357 350 343 343 349 358 357 351 351 355 354 353 355 356 352 352 346 342 350 354 353 356 359 358 358 359 4 341 223 213 206 204 205 207 206 204 204 204 202 201 203 204 204 204 203 203 202 202 202
355 355 358 359 0 3 3 6 24 35 19 24 38 28 17 14 5 359 0 7 11 8 6 7 7 7 3 358 360 6 12 8 359 359 1 357 358 9 15 6 7 6 1 5 7 3 4 4 3 7 10 11 7 224 215 216 212 206 204 205 204 204 204 203 201 202 203 203 203 203 204 203 202 202
354 355 357 358 359 2 6 10 17 25 23 25 27 17 11 2 354 353 355 2 8 9 10 11 8 4 3 3 4 6 10 9 6 6 6 360 360 9 15 12 8 8 8 15 15 9 8 14 16 15 14 14 13 329 224 220 218 212 205 203 203 203 202 203 203 203 202 201 200 202 204 204 203 204
351 355 358 358 359 2 7 13 17 9 339 17 10 358 349 342 343 348 350 355 3 6 6 6 4 2 3 4 3 3 6 7 6 6 7 5 3 6 12 14 10 6 6 10 12 7 4 15 22 20 19 18 11 356 317 220 212 211 208 205 205 204 201 202 205 204 202 201 200 201 205 204 203 204
348 354 359 358 0 5 8 14 23 25 287 271 296 306 316 324 332 341 349 355 360 3 4 4 4 5 5 3 1 1 3 2 0 3 4 3 0 0 9 15 10 5 3 3 6 3 0 8 14 19 29 26 10 2 7 275 208 204 203 205 208 206 202 202 205 205 203 201 201 201 204 205 204 204
347 351 359 360 1 8 12 17 26 30 21 336 316 310 314 324 331 340 355 4 3 4 6 4 5 6 5 3 0 359 0 357 353 355 356 355 354 355 9 18 10 3 1 358 356 359 2 8 12 19 32 31 17 11 14 1 221 202 199 203 207 205 202 201 203 205 204 203 202 202 204 206 205 204
349 349 355 359 2 10 17 24 31 35 34 25 9 354 346 347 347 351 0 6 5 7 8 5 4 2 357 355 353 351 351 348 345 346 347 347 348 349 358 15 6 0 1 356 352 358 3 6 13 22 27 28 26 23 19 15 4 196 198 205 208 205 202 201 203 205 205 204 203 203 205 206 205 204
350 349 351 354 360 9 20 29 38 40 38 30 18 9 2 357 354 354 0 5 7 9 8 3 0 356 350 345 342 339 338 336 336 338 337 339 349 352 352 4 6 4 2 356 354 2 4 4 13 22 22 21 29 33 29 26 26 107 189 202 208 205 201 201 203 206 206 205 204 205 206 207 206 205
348 348 347 347 353 4 15 26 36 38 35 27 20 16 12 5 357 350 346 348 354 358 358 351 346 345 344 342 339 333 330 329 331 333 333 337 348 353 358 10 14 10 5 359 1 8 9 9 14 19 20 18 22 29 34 33 29 38 118 189 204 203 199 199 203 207 207 205 205 205 207 208 208 207
347 345 342 339 344 352 1 13 24 27 23 16 13 13 14 12 6 358 349 343 342 349 351 342 334 334 337 341 340 332 326 326 326 327 330 331 333 343 359 12 17 14 9 7 9 9 9 12 16 18 21 19 17 21 27 32 32 34 48 86 187 198 198 200 205 209 210 207 207 208 208 208 208 208
350 346 339 333 333 336 340 351 4 9 5 2 1 359 1 6 5 1 359 353 347 354 358 353 345 343 345 346 343 336 328 325 324 324 325 322 321 334 353 7 16 17 11 8 10 10 8 11 14 18 23 24 24 25 24 25 27 27 33 45 82 183 198 203 205 208 209 208 208 211 211 209 209 209
352 350 344 336 329 325 326 330 338 346 347 347 349 348 347 350 352 356 2 1 355 357 2 1 357 354 352 351 349 347 342 336 332 329 324 316 315 328 347 6 18 17 8 3 4 7 8 9 13 17 21 22 24 28 27 25 25 24 19 21 36 86 183 202 209 213 211 207 207 211 212 212 211 210
348 348 348 343 334 325 320 319 321 327 331 334 339 341 339 338 339 343 351 356 355 355 357 359 358 354 351 350 351 355 355 349 345 348 346 333 321 321 338 359 9 7 2 358 356 358 2 4 8 13 17 20 22 27 27 25 29 35 32 19 19 46 76 164 208 214 211 208 209 211 211 212 212 211
343 343 344 343 339 330 321 315 313 314 317 323 329 334 335 334 334 335 336 339 344 346 349 353 354 351 350 348 344 347 355 357 357 3 3 354 339 320 327 348 352 347 350 351 350 355 358 359 2 7 11 15 20 27 30 28 35 47 48 42 38 49 67 98 170 195 200 205 209 211 212 212 210 208
334 336 336 336 335 332 324 315 308 305 307 312 318 324 328 331 334 336 335 334 337 339 341 345 347 346 348 348 344 342 349 357 3 6 1 358 355 336 311 321 332 332 338 342 344 351 355 354 356 1 4 7 12 22 36 42 50 62 66 61 58 62 69 79 114 168 191 203 209 210 211 212 210 206
324 325 326 325 325 326 324 317 308 302 300 302 308 314 319 323 328 332 334 335 335 336 336 338 339 339 342 346 346 343 346 352 358 358 350 350 356 353 326 300 307 317 327 335 339 345 350 349 348 351 358 4 10 15 29 56 65 68 71 71 69 69 69 71 81 114 170 201 211 214 213 214 213 211
318 317 317 315 315 315 315 313 309 304 299 296 298 305 310 317 324 328 331 334 336 339 340 337 336 335 335 341 345 343 343 348 350 347 337 335 350 2 2 330 299 306 312 321 329 335 342 343 340 341 349 0 6 7 14 82 86 66 70 76 76 73 71 70 72 74 82 138 198 209 212 215 217 216
317 315 313 312 311 309 306 304 304 304 299 292 291 296 303 312 319 323 327 331 336 345 351 347 342 338 331 332 337 334 335 345 351 349 343 335 340 358 8 354 299 297 308 318 324 329 336 340 336 336 344 354 358 2 25 87 102 74 72 75 75 74 72 72 73 71 67 66 82 170 204 214 219 219
313 313 313 313 313 312 308 301 297 297 297 295 292 292 296 304 311 314 318 325 332 344 356 360 358 355 343 331 330 325 325 339 349 350 346 339 331 332 341 339 322 313 317 323 325 329 336 340 340 341 346 351 351 0 68 104 108 103 93 83 78 75 71 69 69 68 64 60 61 74 149 207 219 221
306 309 312 314 315 315 314 309 300 294 293 293 293 292 291 294 300 302 305 312 323 335 350 2 8 7 0 346 337 333 326 325 334 343 346 343 335 322 315 319 321 315 313 319 324 327 329 333 342 351 353 353 354 8 117 130 127 120 106 93 85 79 74 70 67 64 60 57 57 63 74 105 181 210
300 304 307 311 314 314 315 315 311 302 295 290 290 290 287 287 289 292 295 302 309 321 337 350 2 7 6 356 344 340 333 322 323 334 340 343 344 334 317 312 315 314 313 318 323 323 322 326 337 351 356 355 354 356 152 151 146 134 115 99 90 84 78 73 69 67 63 57 55 59 65 72 86 117
297 300 303 306 310 312 313 314 313 310 302 294 289 287 284 281 282 284 290 296 298 306 321 333 344 357 3 356 342 334 331 328 327 331 340 347 355 356 347 337 330 326 322 321 324 324 323 326 333 346 352 349 348 350 180 175 165 145 124 108 95 86 81 77 73 71 68 62 56 57 63 67 69 72
294 297 300 303 306 309 309 309 308 308 305 300 294 290 286 282 280 282 288 292 291 294 305 316 324 338 351 354 346 332 324 326 329 330 340 353 10 19 9 1 355 350 344 334 332 337 339 337 335 340 349 342 337 340 231 195 174 147 127 115 101 87 81 80 77 73 71 68 62 59 65 69 69 67
291 294 297 300 303 305 305 304 303 303 304 303 299 293 290 289 284 283 287 288 284 286 294 302 308 318 332 342 345 338 322 316 318 319 330 351 8 10 3 2 3 0 352 344 339 340 347 352 348 342 354 356 347 337 267 199 167 144 127 115 103 89 80 79 77 73 73 73 69 66 68 71 72 71
290 293 295 298 302 303 302 300 299 298 299 302 300 294 291 292 290 285 283 281 279 282 288 291 295 303 313 324 335 338 325 306 301 300 306 334 350 346 338 345 358 358 348 346 346 339 343 358 4 357 0 10 5 356 340 171 155 146 132 115 102 91 82 78 75 73 75 75 74 72 71 71 74 74
291 294 296 298 300 300 298 295 295 295 296 298 300 296 290 288 286 281 277 277 279 282 284 284 286 291 296 304 319 331 325 302 289 286 283 295 321 334 330 321 330 344 343 343 349 343 338 350 5 10 23 32 22 22 48 78 124 146 143 128 109 92 81 75 71 73 76 76 74 75 75 73 74 75
292 293 295 296 296 297 294 290 289 291 292 294 296 297 291 283 278 273 270 271 275 279 280 280 280 282 286 291 302 319 323 306 284 277 277 281 299 324 334 315 299 315 331 334 342 345 340 341 359 15 41 88 64 54 74 86 89 106 121 119 106 93 84 77 71 72 75 75 73 75 78 79 76 74
290 291 292 293 292 292 289 286 285 285 287 288 290 293 291 282 273 268 266 266 269 272 276 277 275 275 278 282 289 305 318 314 291 276 272 274 284 304 328 329 305 303 312 324 335 345 348 343 349 12 40 123 137 105 89 97 101 102 106 106 104 100 93 86 81 80 79 77 74 76 80 83 81 78
287 287 288 289 289 287 285 283 282 281 282 283 283 285 287 284 277 270 266 265 265 265 268 271 270 269 271 274 279 292 308 314 298 277 267 267 273 281 295 314 316 309 300 299 315 335 356 1 344 333 152 168 172 160 135 124 126 119 117 117 114 108 100 92 90 89 84 79 78 83 88 88 85 82
285 285 285 285 286 285 283 281 280 278 278 279 279 278 278 279 277 273 267 264 262 262 264 267 266 264 264 266 271 279 293 306 302 280 266 261 261 265 271 282 298 304 292 273 280 297 331 11 359 314 222 189 181 180 175 157 140 129 126 127 125 120 112 105 97 89 83 79 82 90 96 95 90 84
286 285 284 284 284 284 282 281 279 276 275 275 275 274 273 272 273 272 268 264 261 259 260 262 262 260 259 258 262 269 276 288 294 283 268 260 256 259 267 272 278 287 284 263 255 266 278 312 354 320 259 202 178 174 174 162 149 146 141 133 134 139 137 131 123 111 99 93 91 91 95 97 91 83
287 287 286 284 283 282 281 280 278 276 274 272 271 271 269 268 269 270 268 265 261 257 256 255 256 257 255 250 252 258 263 268 275 277 270 262 259 260 266 266 263 268 276 266 246 247 259 266 278 291 262 219 191 179 177 172 164 164 168 164 161 160 158 156 154 145 132 122 109 94 89 95 92 85
288 288 287 285 282 280 279 279 278 276 273 270 268 268 268 267 267 267 266 263 259 256 253 251 249 251 251 248 246 249 251 252 258 264 264 260 258 259 264 265 257 254 261 265 251 238 238 240 237 236 239 229 214 199 188 190 193 192 192 194 192 181 171 167 164 160 159 163 144 109 105 128 127 99